Location: Newark
(32.9533°N, 113.4900°W)
Time: 12:32:22
(UTC+00:00)

Envisat - Pass Details

Date: 25 October 2019
Orbit: 764 x 766 km, 98.1° (Epoch: 22 November)

Event Time Altitude Azimuth Distance (km) Brightness Sun altitude
Rises 02:38:07 0° 197° (SSW) 3,217 6.4 -23.2°
Reaches altitude 10° 02:40:49 10° 211° (SSW) 2,295 5.8 -23.7°
Maximum altitude 02:44:51 24° 264° (W) 1,551 5.3 -24.6°
Drops below altitude 10° 02:48:55 10° 318° (NW) 2,306 6.0 -25.4°
Sets 02:51:40 0° 332° (NNW) 3,236 6.6 -26.0°
